Вернуться в каталог

STARLINK-31820

АктивенСвязьVLEO
NORAD 59725·PAYLOAD·🇺🇸 United States

Запущен May 10, 2024 с Vandenberg Space Force Base

Loading…

Ближайшие Пролёты (ближайшие 24 часа)

TLE

СвежийSource: CelesTrak SupGP

Эпоха: Sep 14, 2026, 20:49 UTC

1 59725C 24088T   26257.86784722 -.00014766  00000+0 -47510-3 0  2578
2 59725  53.1581 339.8857 0001168  86.1276 310.6070 15.31691089    13

Отслеживайте STARLINK-31820 в реальном времени с AllMySat

Download on the App Store